• In Hungary
  • List of Countries
  • For 7 days
  • Water Temperature
  • Satellite Maps
  • Weather Map
  • News
  • Weather Widgets
  • user-avatar
    Login

    Hourly Weather Kolari

    Today, 20 July, Friday

    Time Temperature Precipitation Wind Pressure Humidity
    00:00 +22°C° 0 mm 1 mps 748 mmHg 60%
    01:00 +20°C° 0 mm 2 mps 748 mmHg 63%
    02:00 +19°C° 0 mm 2 mps 748 mmHg 65%
    03:00 +20°C° 0 mm 2 mps 748 mmHg 65%
    04:00 +20°C° 0 mm 2 mps 748 mmHg 65%
    05:00 +20°C° 0 mm 2 mps 748 mmHg 65%
    06:00 +21°C° 0 mm 2 mps 748 mmHg 61%
    07:00 +24°C° 0 mm 2 mps 748 mmHg 56%
    08:00 +25°C° 0 mm 2 mps 748 mmHg 51%
    09:00 +27°C° 0 mm 3 mps 748 mmHg 46%
    10:00 +28°C° 0 mm 3 mps 748 mmHg 40%
    11:00 +29°C° 0 mm 3 mps 748 mmHg 35%
    12:00 +30°C° 0 mm 3 mps 747 mmHg 34%
    13:00 +30°C° 0 mm 3 mps 747 mmHg 32%
    14:00 +31°C° 0 mm 3 mps 747 mmHg 31%
    15:00 +31°C° 0 mm 3 mps 746 mmHg 31%
    16:00 +31°C° 0 mm 3 mps 746 mmHg 31%
    17:00 +31°C° 0 mm 3 mps 746 mmHg 32%
    18:00 +29°C° 0 mm 2 mps 745 mmHg 37%
    19:00 +28°C° 0 mm 2 mps 745 mmHg 41%
    20:00 +27°C° 0 mm 1 mps 745 mmHg 46%
    21:00 +25°C° 0 mm 1 mps 745 mmHg 51%
    22:00 +23°C° 0 mm 1 mps 745 mmHg 55%
    23:00 +21°C° 0 mm 1 mps 745 mmHg 60%

    Tomorrow, 21 July, Saturday

    Time Temperature Precipitation Wind Pressure Humidity
    00:00 +21°C° 0 mm 1 mps 745 mmHg 62%
    01:00 +20°C° 0 mm 1 mps 745 mmHg 64%
    02:00 +19°C° 0 mm 1 mps 745 mmHg 66%
    03:00 +20°C° 0 mm 1 mps 745 mmHg 66%
    04:00 +20°C° 0 mm 1 mps 745 mmHg 66%
    05:00 +21°C° 0 mm 1 mps 745 mmHg 66%
    06:00 +22°C° 0 mm 1 mps 744 mmHg 61%
    07:00 +24°C° 0 mm 2 mps 744 mmHg 57%
    08:00 +25°C° 0 mm 2 mps 744 mmHg 52%
    09:00 +26°C° 0.1 mm 2 mps 744 mmHg 52%
    10:00 +26°C° 0.1 mm 3 mps 744 mmHg 53%
    11:00 +27°C° 0.1 mm 3 mps 744 mmHg 53%
    12:00 +27°C° 0.2 mm 3 mps 743 mmHg 52%
    13:00 +28°C° 0.2 mm 3 mps 743 mmHg 51%
    14:00 +28°C° 0.2 mm 3 mps 743 mmHg 50%
    15:00 +28°C° 0.3 mm 3 mps 742 mmHg 52%
    16:00 +27°C° 0.3 mm 3 mps 742 mmHg 53%
    17:00 +27°C° 0.3 mm 2 mps 742 mmHg 55%
    18:00 +26°C° 0.7 mm 2 mps 742 mmHg 62%
    19:00 +25°C° 0.7 mm 2 mps 741 mmHg 69%
    20:00 +24°C° 0.7 mm 2 mps 741 mmHg 76%
    21:00 +23°C° 0.4 mm 2 mps 741 mmHg 82%
    22:00 +22°C° 0.4 mm 1 mps 741 mmHg 88%
    23:00 +20°C° 0.4 mm 1 mps 741 mmHg 94%

    Day after tomorrow, 22 July, Sunday

    Time Temperature Precipitation Wind Pressure Humidity
    00:00 +20°C° 0.5 mm 1 mps 741 mmHg 95%
    01:00 +20°C° 0.5 mm 1 mps 740 mmHg 96%
    02:00 +20°C° 0.5 mm 1 mps 740 mmHg 97%
    03:00 +20°C° 0.4 mm 1 mps 740 mmHg 96%
    04:00 +20°C° 0.4 mm 1 mps 740 mmHg 95%
    05:00 +20°C° 0.4 mm 1 mps 740 mmHg 95%
    06:00 +21°C° 0.6 mm 1 mps 740 mmHg 91%
    07:00 +22°C° 0.6 mm 1 mps 740 mmHg 88%
    08:00 +23°C° 0.6 mm 1 mps 740 mmHg 85%
    09:00 +24°C° 0.9 mm 1 mps 740 mmHg 78%
    10:00 +25°C° 0.9 mm 2 mps 740 mmHg 72%
    11:00 +26°C° 0.9 mm 2 mps 740 mmHg 65%
    12:00 +27°C° 0.1 mm 2 mps 740 mmHg 58%
    13:00 +28°C° 0.1 mm 2 mps 740 mmHg 51%
    14:00 +29°C° 0.1 mm 2 mps 740 mmHg 43%
    15:00 +29°C° 0 mm 1 mps 740 mmHg 46%
    16:00 +28°C° 0 mm 1 mps 740 mmHg 48%
    17:00 +28°C° 0 mm 1 mps 740 mmHg 50%
    18:00 +27°C° 0.1 mm 1 mps 740 mmHg 54%
    19:00 +26°C° 0.1 mm 1 mps 740 mmHg 58%
    20:00 +26°C° 0.1 mm 1 mps 740 mmHg 61%
    21:00 +24°C° 0.3 mm 2 mps 740 mmHg 67%
    22:00 +23°C° 0.3 mm 2 mps 741 mmHg 73%
    23:00 +20°C° 0.3 mm 2 mps 741 mmHg 79%

    23 July, Monday

    Time Temperature Precipitation Wind Pressure Humidity
    00:00 +20°C° 0.4 mm 1 mps 741 mmHg 83%
    01:00 +19°C° 0.4 mm 1 mps 741 mmHg 86%
    02:00 +18°C° 0.4 mm 1 mps 741 mmHg 90%
    03:00 +19°C° 0 mm 1 mps 741 mmHg 88%
    04:00 +19°C° 0 mm 1 mps 741 mmHg 86%
    05:00 +19°C° 0 mm 1 mps 741 mmHg 85%
    06:00 +21°C° 0 mm 1 mps 741 mmHg 78%
    07:00 +22°C° 0 mm 1 mps 741 mmHg 72%
    08:00 +24°C° 0 mm 1 mps 741 mmHg 66%
    09:00 +25°C° 0.1 mm 2 mps 741 mmHg 60%
    10:00 +27°C° 0.1 mm 2 mps 741 mmHg 54%
    11:00 +28°C° 0.1 mm 2 mps 741 mmHg 48%
    12:00 +28°C° 0.1 mm 2 mps 741 mmHg 46%
    13:00 +29°C° 0.1 mm 2 mps 741 mmHg 45%
    14:00 +29°C° 0.1 mm 2 mps 741 mmHg 43%
    15:00 +29°C° 0 mm 2 mps 741 mmHg 43%
    16:00 +29°C° 0 mm 2 mps 741 mmHg 43%
    17:00 +29°C° 0 mm 2 mps 741 mmHg 43%
    18:00 +28°C° 0 mm 2 mps 741 mmHg 49%
    19:00 +27°C° 0 mm 2 mps 742 mmHg 54%
    20:00 +25°C° 0 mm 2 mps 742 mmHg 59%
    21:00 +24°C° 0 mm 2 mps 742 mmHg 66%
    22:00 +21°C° 0 mm 2 mps 743 mmHg 73%
    23:00 +19°C° 0 mm 2 mps 743 mmHg 80%

    24 July, Tuesday

    Time Temperature Precipitation Wind Pressure Humidity
    00:00 +18°C° 0 mm 2 mps 743 mmHg 84%
    01:00 +17°C° 0 mm 2 mps 744 mmHg 88%
    02:00 +16°C° 0 mm 2 mps 744 mmHg 92%
    03:00 +16°C° 0 mm 2 mps 744 mmHg 90%
    04:00 +17°C° 0 mm 2 mps 744 mmHg 87%
    05:00 +17°C° 0 mm 2 mps 745 mmHg 85%
    06:00 +20°C° 0 mm 1 mps 745 mmHg 78%
    07:00 +21°C° 0 mm 1 mps 745 mmHg 71%
    08:00 +23°C° 0 mm 1 mps 745 mmHg 64%
    09:00 +25°C° 0 mm 1 mps 745 mmHg 58%
    10:00 +27°C° 0 mm 1 mps 745 mmHg 52%
    11:00 +27°C° 0 mm 0 mps 746 mmHg 45%
    12:00 +29°C° 0 mm 1 mps 746 mmHg 43%
    13:00 +29°C° 0 mm 1 mps 746 mmHg 40%
    14:00 +30°C° 0 mm 1 mps 746 mmHg 37%
    15:00 +30°C° 0 mm 1 mps 746 mmHg 37%
    16:00 +29°C° 0 mm 1 mps 746 mmHg 37%
    17:00 +29°C° 0 mm 1 mps 746 mmHg 37%
    18:00 +29°C° 0 mm 1 mps 746 mmHg 42%
    19:00 +28°C° 0 mm 1 mps 746 mmHg 46%
    20:00 +27°C° 0 mm 1 mps 746 mmHg 51%
    21:00 +25°C° 0 mm 1 mps 746 mmHg 56%
    22:00 +23°C° 0 mm 1 mps 747 mmHg 61%
    23:00 +21°C° 0 mm 1 mps 747 mmHg 66%

    25 July, Wednesday

    Time Temperature Precipitation Wind Pressure Humidity
    00:00 +21°C° 0 mm 1 mps 747 mmHg 69%
    01:00 +20°C° 0 mm 1 mps 747 mmHg 72%
    02:00 +20°C° 0 mm 1 mps 747 mmHg 74%
    03:00 +20°C° 0 mm 1 mps 747 mmHg 73%
    04:00 +21°C° 0 mm 1 mps 748 mmHg 72%
    05:00 +21°C° 0 mm 1 mps 748 mmHg 71%
    06:00 +23°C° 0 mm 1 mps 748 mmHg 65%
    07:00 +25°C° 0 mm 1 mps 748 mmHg 58%
    08:00 +27°C° 0 mm 1 mps 748 mmHg 52%
    09:00 +28°C° 0 mm 2 mps 748 mmHg 48%
    10:00 +29°C° 0 mm 2 mps 748 mmHg 44%
    11:00 +30°C° 0 mm 3 mps 748 mmHg 40%
    12:00 +30°C° 0 mm 3 mps 748 mmHg 42%
    13:00 +30°C° 0 mm 3 mps 747 mmHg 43%
    14:00 +30°C° 0 mm 3 mps 747 mmHg 44%
    15:00 +30°C° 0 mm 3 mps 747 mmHg 46%
    16:00 +30°C° 0 mm 3 mps 747 mmHg 48%
    17:00 +30°C° 0 mm 3 mps 747 mmHg 49%
    18:00 +29°C° 0.1 mm 2 mps 747 mmHg 55%
    19:00 +28°C° 0.1 mm 2 mps 747 mmHg 60%
    20:00 +27°C° 0.1 mm 2 mps 747 mmHg 66%
    21:00 +25°C° 0.1 mm 2 mps 747 mmHg 73%
    22:00 +24°C° 0.1 mm 1 mps 747 mmHg 80%
    23:00 +22°C° 0.1 mm 1 mps 748 mmHg 88%
    Show more